Regional Weather Roundup
Issued by NWS

Home | Current Version | Previous Version | Text Only | Print | Product List | Glossary On
Versions: 1 2 3 4 5 6 7 8 9 10 11 12 13 14 15 16 17 18 19 20 21 22 23 24 25 26 27 28 29 30 31 32 33 34 35 36 37 38 39 40 41 42 43 44 45 46 47 48 49 50
000
ASUS43 KLMK 232110
RWRKY
KENTUCKY REGIONAL WEATHER ROUNDUP
NATIONAL WEATHER SERVICE LOUISVILLE KY
500 PM EDT THU OCT 23 2014

NOTE "FAIR" INDICATES FEW OR NO CLOUDS BELOW 12,000 FEET
WITH NO SIGNIFICANT WEATHER AND/OR OBSTRUCTIONS TO VISIBILITY.

KYZ001>023-026-027-061>063-070>075-232200-
WESTERN AND SOUTH CENTRAL KENTUCKY

CITY           SKY/WX    TMP DP  RH WIND       PRES   REMARKS
PADUCAH        CLOUDY    61  44  53 NW5       30.13F
HENDERSON      CLOUDY   N/A N/A N/A NW3       30.14R
OWENSBORO      PTSUNNY   61  40  45 N3        30.14F
HOPKINSVILLE   CLOUDY    62  40  45 N2        30.12F
BOWLING GREEN  PTSUNNY   62  40  44 NE3       30.13F
GLASGOW        CLOUDY    59  42  53 E5        30.13S
$$

KYZ024-025-028>034-038-045-046-053-232200-
NORTH CENTRAL KENTUCKY

CITY           SKY/WX    TMP DP  RH WIND       PRES   REMARKS
LOUISVILLE/SDF PTSUNNY   64  42  44 VRB7      30.13F
LOUISVILLE/LOU MOSUNNY   61  42  49 VRB3      30.14F
FORT KNOX      MOSUNNY   62  41  46 N2        30.12F
$$

KYZ035>037-039>044-047>052-055>060-089>105-232200-
NORTHEAST KENTUCKY

CITY           SKY/WX    TMP DP  RH WIND       PRES   REMARKS
LEXINGTON      SUNNY     62  43  49 N5        30.14F
COVINGTON      PTSUNNY   59  38  45 CALM      30.13F
FRANKFORT      SUNNY     60  41  49 SE8       30.13F
$$

KYZ054-064>069-076>088-106>120-232200-
SOUTHEAST KENTUCKY

CITY           SKY/WX    TMP DP  RH WIND       PRES   REMARKS
JACKSON        SUNNY     58  39  49 CALM      30.13F
LONDON         SUNNY     63  40  42 VRB3      30.12F
SOMERSET       SUNNY     59  39  47 N6        30.13F
MIDDLESBORO    SUNNY     63  41  44 NW5       30.11S
MONTICELLO     CLEAR     62  42  47 VRB3      30.14F
$$




USA.gov is the U.S. government's official web portal to all federal, state and local government web resources and services.